Location: Bermeries
(50.2863°N, 3.7551°E)
Time: 01:34:09
(UTC+00:00)

Okean 3 - Pass Details

Date: 23 May 2024
Orbit: 562 x 582 km, 82.5° (Epoch: 16 June)

Event Time Altitude Azimuth Distance (km) Brightness Sun altitude
Exits shadow 01:34:54 21° 241° (WSW) 1,282 4.7 -14.8°
Maximum altitude 01:36:52 32° 288° (WNW) 974 4.5 -14.6°
Drops below altitude 10° 01:40:35 10° 353° (N) 1,870 6.9 -14.4°
Sets 01:42:58 0° 3° (N) 2,774 8.1 -14.2°
